owner,sensor,date,latitude,longitude,vertical_datum,sea_water_practical_salinity,qcFlag 
NERRS,ioos:station:NOAA.NERRS:gndbhwq:1,2016-04-01T00:45:00Z,30.4178,-88.4054,1.42,0.2,1111122 
NERRS,ioos:station:NOAA.NERRS:gndbhwq:1,2016-04-01T01:45:00Z,30.4178,-88.4054,1.4,1.8,1111122 
NERRS,ioos:station:NOAA.NERRS:gndbhwq:1,2016-04-01T02:45:00Z,30.4178,-88.4054,1.34,0.1,1111122 
NERRS,ioos:station:NOAA.NERRS:gndbhwq:1,2016-04-01T03:45:00Z,30.4178,-88.4054,1.29,0.1,1111122 
NERRS,ioos:station:NOAA.NERRS:gndbhwq:1,2016-04-01T04:45:00Z,30.4178,-88.4054,1.27,0.1,1111122 
NERRS,ioos:station:NOAA.NERRS:gndbhwq:1,2016-04-01T05:45:00Z,30.4178,-88.4054,1.21,0.1,1111122 
NERRS,ioos:station:NOAA.NERRS:gndbhwq:1,2016-04-01T06:45:00Z,30.4178,-88.4054,1.16,0.1,1111122 
NERRS,ioos:station:NOAA.NERRS:gndbhwq:1,2016-04-01T07:45:00Z,30.4178,-88.4054,1.16,0.1,1111122 
NERRS,ioos:station:NOAA.NERRS:gndbhwq:1,2016-04-01T08:45:00Z,30.4178,-88.4054,1.19,0.1,1111122 
NERRS,ioos:station:NOAA.NERRS:gndbhwq:1,2016-04-01T09:45:00Z,30.4178,-88.4054,1.19,0.1,1111122 
NERRS,ioos:station:NOAA.NERRS:gndbhwq:1,2016-04-01T10:45:00Z,30.4178,-88.4054,1.23,0.1,1111122 
NERRS,ioos:station:NOAA.NERRS:gndbhwq:1,2016-04-01T11:45:00Z,30.4178,-88.4054,1.25,0.1,1111122 
NERRS,ioos:station:NOAA.NERRS:gndbhwq:1,2016-04-01T12:45:00Z,30.4178,-88.4054,1.31,0.1,1111122 
NERRS,ioos:station:NOAA.NERRS:gndbhwq:1,2016-04-01T13:45:00Z,30.4178,-88.4054,1.34,0.1,1111122 
NERRS,ioos:station:NOAA.NERRS:gndbhwq:1,2016-04-01T14:45:00Z,30.4178,-88.4054,1.42,0.2,1111122 
NERRS,ioos:station:NOAA.NERRS:gndbhwq:1,2016-04-01T15:45:00Z,30.4178,-88.4054,1.46,0.5,1111122 
NERRS,ioos:station:NOAA.NERRS:gndbhwq:1,2016-04-01T16:45:00Z,30.4178,-88.4054,1.47,0.3,1111122 
NERRS,ioos:station:NOAA.NERRS:gndbhwq:1,2016-04-01T17:45:00Z,30.4178,-88.4054,1.43,0.3,1111122 
NERRS,ioos:station:NOAA.NERRS:gndbhwq:1,2016-04-01T18:45:00Z,30.4178,-88.4054,1.34,0.2,1111122 
NERRS,ioos:station:NOAA.NERRS:gndbhwq:1,2016-04-01T19:45:00Z,30.4178,-88.4054,1.36,0.1,1111122 
NERRS,ioos:station:NOAA.NERRS:gndbhwq:1,2016-04-01T20:45:00Z,30.4178,-88.4054,1.34,0.1,1111122 
NERRS,ioos:station:NOAA.NERRS:gndbhwq:1,2016-04-01T21:45:00Z,30.4178,-88.4054,1.48,0.1,1111122 
NERRS,ioos:station:NOAA.NERRS:gndbhwq:1,2016-04-01T22:45:00Z,30.4178,-88.4054,1.42,0.1,1111122 
NERRS,ioos:station:NOAA.NERRS:gndbhwq:1,2016-04-01T23:45:00Z,30.4178,-88.4054,1.3,0.1,1111122 
NERRS,ioos:station:NOAA.NERRS:gndbhwq:1,2016-04-02T00:45:00Z,30.4178,-88.4054,1.29,0.1,1111122 
NERRS,ioos:station:NOAA.NERRS:gndbhwq:1,2016-04-02T01:45:00Z,30.4178,-88.4054,1.16,0.1,1111122 
NERRS,ioos:station:NOAA.NERRS:gndbhwq:1,2016-04-02T13:45:00Z,30.4178,-88.4054,1.06,0.1,1111122 
NERRS,ioos:station:NOAA.NERRS:gndbhwq:1,2016-04-04T20:45:00Z,30.4178,-88.4054,1.21,0.1,1111122 
NERRS,ioos:station:NOAA.NERRS:gndbhwq:1,2016-04-04T21:45:00Z,30.4178,-88.4054,1.27,0.1,1111122 
NERRS,ioos:station:NOAA.NERRS:gndbhwq:1,2016-04-04T22:45:00Z,30.4178,-88.4054,1.3,0.1,1111122 
NERRS,ioos:station:NOAA.NERRS:gndbhwq:1,2016-04-04T23:45:00Z,30.4178,-88.4054,1.32,0.1,1111122 
NERRS,ioos:station:NOAA.NERRS:gndbhwq:1,2016-04-05T00:45:00Z,30.4178,-88.4054,1.32,0.1,1111122 
NERRS,ioos:station:NOAA.NERRS:gndbhwq:1,2016-04-05T01:45:00Z,30.4178,-88.4054,1.34,0.2,1111122 
NERRS,ioos:station:NOAA.NERRS:gndbhwq:1,2016-04-05T02:45:00Z,30.4178,-88.4054,1.34,0.2,1111122 
NERRS,ioos:station:NOAA.NERRS:gndbhwq:1,2016-04-05T03:45:00Z,30.4178,-88.4054,1.34,0.2,1111122 
NERRS,ioos:station:NOAA.NERRS:gndbhwq:1,2016-04-05T04:45:00Z,30.4178,-88.4054,1.3,1.1,1111122 
NERRS,ioos:station:NOAA.NERRS:gndbhwq:1,2016-04-05T05:45:00Z,30.4178,-88.4054,1.22,0.7,1111122 
NERRS,ioos:station:NOAA.NERRS:gndbhwq:1,2016-04-05T06:45:00Z,30.4178,-88.4054,1.13,0.3,1111122 
NERRS,ioos:station:NOAA.NERRS:gndbhwq:1,2016-04-05T07:45:00Z,30.4178,-88.4054,1.05,0.3,1111122 
NERRS,ioos:station:NOAA.NERRS:gndbhwq:1,2016-04-05T16:45:00Z,30.4178,-88.4054,1.2,11.1,1111122 
NERRS,ioos:station:NOAA.NERRS:gndbhwq:1,2016-04-05T17:45:00Z,30.4178,-88.4054,1.16,10.4,1111122 
NERRS,ioos:station:NOAA.NERRS:gndbhwq:1,2016-04-05T18:45:00Z,30.4178,-88.4054,1.17,10.3,1111122 
NERRS,ioos:station:NOAA.NERRS:gndbhwq:1,2016-04-05T19:45:00Z,30.4178,-88.4054,1.11,9.7,1111122 
NERRS,ioos:station:NOAA.NERRS:gndbhwq:1,2016-04-05T20:45:00Z,30.4178,-88.4054,1.13,6.7,1111122 
NERRS,ioos:station:NOAA.NERRS:gndbhwq:1,2016-04-05T21:45:00Z,30.4178,-88.4054,1.2,4.7,1111122 
NERRS,ioos:station:NOAA.NERRS:gndbhwq:1,2016-04-05T22:45:00Z,30.4178,-88.4054,1.26,2.9,1111122 
NERRS,ioos:station:NOAA.NERRS:gndbhwq:1,2016-04-05T23:45:00Z,30.4178,-88.4054,1.27,9.3,1111122 
NERRS,ioos:station:NOAA.NERRS:gndbhwq:1,2016-04-06T00:45:00Z,30.4178,-88.4054,1.27,10.0,1111122 
NERRS,ioos:station:NOAA.NERRS:gndbhwq:1,2016-04-06T01:45:00Z,30.4178,-88.4054,1.28,10.0,1111122 
NERRS,ioos:station:NOAA.NERRS:gndbhwq:1,2016-04-06T02:45:00Z,30.4178,-88.4054,1.28,10.7,1111122 
NERRS,ioos:station:NOAA.NERRS:gndbhwq:1,2016-04-06T03:45:00Z,30.4178,-88.4054,1.31,11.6,1111122 
NERRS,ioos:station:NOAA.NERRS:gndbhwq:1,2016-04-06T04:45:00Z,30.4178,-88.4054,1.31,11.7,1111122 
NERRS,ioos:station:NOAA.NERRS:gndbhwq:1,2016-04-06T05:45:00Z,30.4178,-88.4054,1.2,11.1,1111122 
NERRS,ioos:station:NOAA.NERRS:gndbhwq:1,2016-04-06T06:45:00Z,30.4178,-88.4054,1.17,10.7,1111122 
NERRS,ioos:station:NOAA.NERRS:gndbhwq:1,2016-04-06T07:45:00Z,30.4178,-88.4054,1.08,11.2,1111122 
NERRS,ioos:station:NOAA.NERRS:gndbhwq:1,2016-04-06T08:45:00Z,30.4178,-88.4054,1.03,11.1,1111122 
NERRS,ioos:station:NOAA.NERRS:gndbhwq:1,2016-04-06T09:45:00Z,30.4178,-88.4054,1.06,11.7,1111122 
NERRS,ioos:station:NOAA.NERRS:gndbhwq:1,2016-04-06T10:45:00Z,30.4178,-88.4054,1.11,11.9,1111122 
NERRS,ioos:station:NOAA.NERRS:gndbhwq:1,2016-04-06T11:45:00Z,30.4178,-88.4054,1.18,12.2,1111122 
NERRS,ioos:station:NOAA.NERRS:gndbhwq:1,2016-04-06T12:45:00Z,30.4178,-88.4054,1.22,12.2,1111122 
NERRS,ioos:station:NOAA.NERRS:gndbhwq:1,2016-04-06T13:45:00Z,30.4178,-88.4054,1.28,12.1,1111122 
NERRS,ioos:station:NOAA.NERRS:gndbhwq:1,2016-04-06T14:45:00Z,30.4178,-88.4054,1.25,11.9,1111122 
NERRS,ioos:station:NOAA.NERRS:gndbhwq:1,2016-04-06T15:45:00Z,30.4178,-88.4054,1.33,11.6,1111122 
NERRS,ioos:station:NOAA.NERRS:gndbhwq:1,2016-04-06T16:45:00Z,30.4178,-88.4054,1.35,6.5,1111122 
NERRS,ioos:station:NOAA.NERRS:gndbhwq:1,2016-04-06T17:45:00Z,30.4178,-88.4054,1.31,0.6,1111122 
NERRS,ioos:station:NOAA.NERRS:gndbhwq:1,2016-04-06T18:45:00Z,30.4178,-88.4054,1.2,0.4,1111122 
NERRS,ioos:station:NOAA.NERRS:gndbhwq:1,2016-04-06T19:45:00Z,30.4178,-88.4054,1.12,0.4,1111122 
NERRS,ioos:station:NOAA.NERRS:gndbhwq:1,2016-04-06T20:45:00Z,30.4178,-88.4054,1.13,0.4,1111122 
NERRS,ioos:station:NOAA.NERRS:gndbhwq:1,2016-04-06T21:45:00Z,30.4178,-88.4054,1.05,0.4,1111122 
NERRS,ioos:station:NOAA.NERRS:gndbhwq:1,2016-04-06T22:45:00Z,30.4178,-88.4054,1.16,0.4,1111122 
NERRS,ioos:station:NOAA.NERRS:gndbhwq:1,2016-04-06T23:45:00Z,30.4178,-88.4054,1.25,0.4,1111122 
NERRS,ioos:station:NOAA.NERRS:gndbhwq:1,2016-04-07T00:45:00Z,30.4178,-88.4054,1.35,0.5,1111122 
NERRS,ioos:station:NOAA.NERRS:gndbhwq:1,2016-04-07T01:45:00Z,30.4178,-88.4054,1.37,0.4,1111122 
NERRS,ioos:station:NOAA.NERRS:gndbhwq:1,2016-04-07T02:45:00Z,30.4178,-88.4054,1.28,0.3,1111122 
NERRS,ioos:station:NOAA.NERRS:gndbhwq:1,2016-04-07T03:45:00Z,30.4178,-88.4054,1.29,0.3,1111122 
NERRS,ioos:station:NOAA.NERRS:gndbhwq:1,2016-04-07T04:45:00Z,30.4178,-88.4054,1.3,0.4,1111122 
NERRS,ioos:station:NOAA.NERRS:gndbhwq:1,2016-04-07T05:45:00Z,30.4178,-88.4054,1.28,6.2,1111122 
NERRS,ioos:station:NOAA.NERRS:gndbhwq:1,2016-04-07T06:45:00Z,30.4178,-88.4054,1.29,8.9,1111122 
NERRS,ioos:station:NOAA.NERRS:gndbhwq:1,2016-04-07T07:45:00Z,30.4178,-88.4054,1.22,7.5,1111122 
NERRS,ioos:station:NOAA.NERRS:gndbhwq:1,2016-04-07T08:45:00Z,30.4178,-88.4054,1.16,7.0,1111122 
NERRS,ioos:station:NOAA.NERRS:gndbhwq:1,2016-04-07T09:45:00Z,30.4178,-88.4054,1.16,8.6,1111122 
NERRS,ioos:station:NOAA.NERRS:gndbhwq:1,2016-04-07T10:45:00Z,30.4178,-88.4054,1.18,7.9,1111122 
NERRS,ioos:station:NOAA.NERRS:gndbhwq:1,2016-04-07T11:45:00Z,30.4178,-88.4054,1.17,8.4,1111122 
NERRS,ioos:station:NOAA.NERRS:gndbhwq:1,2016-04-07T12:45:00Z,30.4178,-88.4054,1.24,11.3,1111122 
NERRS,ioos:station:NOAA.NERRS:gndbhwq:1,2016-04-07T13:45:00Z,30.4178,-88.4054,1.25,10.7,1111122 
NERRS,ioos:station:NOAA.NERRS:gndbhwq:1,2016-04-07T14:45:00Z,30.4178,-88.4054,1.32,11.1,1111122 
NERRS,ioos:station:NOAA.NERRS:gndbhwq:1,2016-04-07T15:45:00Z,30.4178,-88.4054,1.27,11.2,1111122 
NERRS,ioos:station:NOAA.NERRS:gndbhwq:1,2016-04-07T16:45:00Z,30.4178,-88.4054,1.3,11.0,1111122 
NERRS,ioos:station:NOAA.NERRS:gndbhwq:1,2016-04-07T17:45:00Z,30.4178,-88.4054,1.29,11.4,1111122 
NERRS,ioos:station:NOAA.NERRS:gndbhwq:1,2016-04-07T18:45:00Z,30.4178,-88.4054,1.31,11.3,1111122 
NERRS,ioos:station:NOAA.NERRS:gndbhwq:1,2016-04-07T19:45:00Z,30.4178,-88.4054,1.21,11.2,1111122 
NERRS,ioos:station:NOAA.NERRS:gndbhwq:1,2016-04-07T20:45:00Z,30.4178,-88.4054,1.14,11.0,1111122 
NERRS,ioos:station:NOAA.NERRS:gndbhwq:1,2016-04-07T21:45:00Z,30.4178,-88.4054,1.07,10.3,1111122 
NERRS,ioos:station:NOAA.NERRS:gndbhwq:1,2016-04-07T22:45:00Z,30.4178,-88.4054,1.07,9.5,1111122 
NERRS,ioos:station:NOAA.NERRS:gndbhwq:1,2016-04-07T23:45:00Z,30.4178,-88.4054,1.14,9.8,1111122 
NERRS,ioos:station:NOAA.NERRS:gndbhwq:1,2016-04-08T00:45:00Z,30.4178,-88.4054,1.17,10.7,1111122 
NERRS,ioos:station:NOAA.NERRS:gndbhwq:1,2016-04-08T01:45:00Z,30.4178,-88.4054,1.19,10.4,1111122 
NERRS,ioos:station:NOAA.NERRS:gndbhwq:1,2016-04-08T02:45:00Z,30.4178,-88.4054,1.18,10.8,1111122 
NERRS,ioos:station:NOAA.NERRS:gndbhwq:1,2016-04-08T03:45:00Z,30.4178,-88.4054,1.19,10.9,1111122 
NERRS,ioos:station:NOAA.NERRS:gndbhwq:1,2016-04-08T04:45:00Z,30.4178,-88.4054,1.17,10.5,1111122 
NERRS,ioos:station:NOAA.NERRS:gndbhwq:1,2016-04-08T05:45:00Z,30.4178,-88.4054,1.26,10.9,1111122 
NERRS,ioos:station:NOAA.NERRS:gndbhwq:1,2016-04-08T06:45:00Z,30.4178,-88.4054,1.22,11.0,1111122 
NERRS,ioos:station:NOAA.NERRS:gndbhwq:1,2016-04-08T07:45:00Z,30.4178,-88.4054,1.23,11.1,1111122 
NERRS,ioos:station:NOAA.NERRS:gndbhwq:1,2016-04-08T08:45:00Z,30.4178,-88.4054,1.22,11.1,1111122 
NERRS,ioos:station:NOAA.NERRS:gndbhwq:1,2016-04-08T09:45:00Z,30.4178,-88.4054,1.14,11.1,1111122 
NERRS,ioos:station:NOAA.NERRS:gndbhwq:1,2016-04-08T10:45:00Z,30.4178,-88.4054,1.23,11.1,1111122 
NERRS,ioos:station:NOAA.NERRS:gndbhwq:1,2016-04-08T11:45:00Z,30.4178,-88.4054,1.21,11.2,1111122 
NERRS,ioos:station:NOAA.NERRS:gndbhwq:1,2016-04-08T12:45:00Z,30.4178,-88.4054,1.25,11.3,1111122 
NERRS,ioos:station:NOAA.NERRS:gndbhwq:1,2016-04-08T13:45:00Z,30.4178,-88.4054,1.29,11.3,1111122 
NERRS,ioos:station:NOAA.NERRS:gndbhwq:1,2016-04-08T14:45:00Z,30.4178,-88.4054,1.26,11.4,1111122 
NERRS,ioos:station:NOAA.NERRS:gndbhwq:1,2016-04-08T15:45:00Z,30.4178,-88.4054,1.23,11.3,1111122 
NERRS,ioos:station:NOAA.NERRS:gndbhwq:1,2016-04-08T16:45:00Z,30.4178,-88.4054,1.27,11.3,1111122 
NERRS,ioos:station:NOAA.NERRS:gndbhwq:1,2016-04-08T17:45:00Z,30.4178,-88.4054,1.25,11.4,1111122 
NERRS,ioos:station:NOAA.NERRS:gndbhwq:1,2016-04-08T18:45:00Z,30.4178,-88.4054,1.32,11.4,1111122 
NERRS,ioos:station:NOAA.NERRS:gndbhwq:1,2016-04-08T19:45:00Z,30.4178,-88.4054,1.21,11.4,1111122 
NERRS,ioos:station:NOAA.NERRS:gndbhwq:1,2016-04-08T20:45:00Z,30.4178,-88.4054,1.09,11.3,1111122 
NERRS,ioos:station:NOAA.NERRS:gndbhwq:1,2016-04-08T21:45:00Z,30.4178,-88.4054,0.99,11.3,1111122 
NERRS,ioos:station:NOAA.NERRS:gndbhwq:1,2016-04-08T22:45:00Z,30.4178,-88.4054,0.93,11.3,1111122 
NERRS,ioos:station:NOAA.NERRS:gndbhwq:1,2016-04-08T23:45:00Z,30.4178,-88.4054,1.0,11.4,1111122 
NERRS,ioos:station:NOAA.NERRS:gndbhwq:1,2016-04-09T00:45:00Z,30.4178,-88.4054,0.95,11.5,1111122 
NERRS,ioos:station:NOAA.NERRS:gndbhwq:1,2016-04-09T01:45:00Z,30.4178,-88.4054,0.98,11.5,1111122 
NERRS,ioos:station:NOAA.NERRS:gndbhwq:1,2016-04-09T02:45:00Z,30.4178,-88.4054,0.89,11.1,1111122 
NERRS,ioos:station:NOAA.NERRS:gndbhwq:1,2016-04-09T03:45:00Z,30.4178,-88.4054,0.92,11.8,1111122 
NERRS,ioos:station:NOAA.NERRS:gndbhwq:1,2016-04-09T04:45:00Z,30.4178,-88.4054,0.91,11.9,1111122 
NERRS,ioos:station:NOAA.NERRS:gndbhwq:1,2016-04-09T05:45:00Z,30.4178,-88.4054,0.92,12.0,1111122 
NERRS,ioos:station:NOAA.NERRS:gndbhwq:1,2016-04-09T06:45:00Z,30.4178,-88.4054,1.0,12.3,1111122 
NERRS,ioos:station:NOAA.NERRS:gndbhwq:1,2016-04-09T07:45:00Z,30.4178,-88.4054,1.12,12.3,1111122 
NERRS,ioos:station:NOAA.NERRS:gndbhwq:1,2016-04-09T08:45:00Z,30.4178,-88.4054,1.14,12.4,1111122 
NERRS,ioos:station:NOAA.NERRS:gndbhwq:1,2016-04-09T09:45:00Z,30.4178,-88.4054,1.19,12.5,1111122 
NERRS,ioos:station:NOAA.NERRS:gndbhwq:1,2016-04-09T10:45:00Z,30.4178,-88.4054,1.23,12.6,1111122 
NERRS,ioos:station:NOAA.NERRS:gndbhwq:1,2016-04-09T11:45:00Z,30.4178,-88.4054,1.26,12.5,1111122 
NERRS,ioos:station:NOAA.NERRS:gndbhwq:1,2016-04-09T12:45:00Z,30.4178,-88.4054,1.37,12.2,1111122 
NERRS,ioos:station:NOAA.NERRS:gndbhwq:1,2016-04-09T13:45:00Z,30.4178,-88.4054,1.43,12.7,1111122 
NERRS,ioos:station:NOAA.NERRS:gndbhwq:1,2016-04-09T14:45:00Z,30.4178,-88.4054,1.46,12.8,1111122 
NERRS,ioos:station:NOAA.NERRS:gndbhwq:1,2016-04-09T15:45:00Z,30.4178,-88.4054,1.45,12.6,1111122 
NERRS,ioos:station:NOAA.NERRS:gndbhwq:1,2016-04-09T16:45:00Z,30.4178,-88.4054,1.41,12.2,1111122 
NERRS,ioos:station:NOAA.NERRS:gndbhwq:1,2016-04-09T17:45:00Z,30.4178,-88.4054,1.42,12.4,1111122 
NERRS,ioos:station:NOAA.NERRS:gndbhwq:1,2016-04-09T18:45:00Z,30.4178,-88.4054,1.39,12.3,1111122 
NERRS,ioos:station:NOAA.NERRS:gndbhwq:1,2016-04-09T19:45:00Z,30.4178,-88.4054,1.3,11.7,1111122 
NERRS,ioos:station:NOAA.NERRS:gndbhwq:1,2016-04-09T20:45:00Z,30.4178,-88.4054,1.23,11.3,1111122 
NERRS,ioos:station:NOAA.NERRS:gndbhwq:1,2016-04-09T21:45:00Z,30.4178,-88.4054,1.14,11.2,1111122 
NERRS,ioos:station:NOAA.NERRS:gndbhwq:1,2016-04-09T22:45:00Z,30.4178,-88.4054,1.08,11.0,1111122 
NERRS,ioos:station:NOAA.NERRS:gndbhwq:1,2016-04-09T23:45:00Z,30.4178,-88.4054,0.98,10.4,1111122 
NERRS,ioos:station:NOAA.NERRS:gndbhwq:1,2016-04-10T00:45:00Z,30.4178,-88.4054,0.98,9.9,1111122 
NERRS,ioos:station:NOAA.NERRS:gndbhwq:1,2016-04-10T01:45:00Z,30.4178,-88.4054,0.94,10.2,1111122 
NERRS,ioos:station:NOAA.NERRS:gndbhwq:1,2016-04-10T02:45:00Z,30.4178,-88.4054,0.94,10.3,1111122 
NERRS,ioos:station:NOAA.NERRS:gndbhwq:1,2016-04-10T03:45:00Z,30.4178,-88.4054,0.98,10.7,1111122 
NERRS,ioos:station:NOAA.NERRS:gndbhwq:1,2016-04-10T04:45:00Z,30.4178,-88.4054,0.99,10.7,1111122 
NERRS,ioos:station:NOAA.NERRS:gndbhwq:1,2016-04-10T05:45:00Z,30.4178,-88.4054,1.07,10.8,1111122 
NERRS,ioos:station:NOAA.NERRS:gndbhwq:1,2016-04-10T06:45:00Z,30.4178,-88.4054,1.13,11.2,1111122 
NERRS,ioos:station:NOAA.NERRS:gndbhwq:1,2016-04-10T07:45:00Z,30.4178,-88.4054,1.15,11.0,1111122 
NERRS,ioos:station:NOAA.NERRS:gndbhwq:1,2016-04-10T08:45:00Z,30.4178,-88.4054,1.2,11.2,1111122 
NERRS,ioos:station:NOAA.NERRS:gndbhwq:1,2016-04-10T09:45:00Z,30.4178,-88.4054,1.18,11.2,1111122 
NERRS,ioos:station:NOAA.NERRS:gndbhwq:1,2016-04-10T10:45:00Z,30.4178,-88.4054,1.26,11.6,1111122 
NERRS,ioos:station:NOAA.NERRS:gndbhwq:1,2016-04-10T11:45:00Z,30.4178,-88.4054,1.27,11.3,1111122 
NERRS,ioos:station:NOAA.NERRS:gndbhwq:1,2016-04-10T12:45:00Z,30.4178,-88.4054,1.4,11.6,1111122 
NERRS,ioos:station:NOAA.NERRS:gndbhwq:1,2016-04-10T13:45:00Z,30.4178,-88.4054,1.45,11.4,1111122 
NERRS,ioos:station:NOAA.NERRS:gndbhwq:1,2016-04-10T14:45:00Z,30.4178,-88.4054,1.53,11.6,1111122 
NERRS,ioos:station:NOAA.NERRS:gndbhwq:1,2016-04-10T15:45:00Z,30.4178,-88.4054,1.57,11.6,1111122 
NERRS,ioos:station:NOAA.NERRS:gndbhwq:1,2016-04-10T16:45:00Z,30.4178,-88.4054,1.6,11.3,1111122 
NERRS,ioos:station:NOAA.NERRS:gndbhwq:1,2016-04-10T17:45:00Z,30.4178,-88.4054,1.62,10.8,1111122 
NERRS,ioos:station:NOAA.NERRS:gndbhwq:1,2016-04-10T18:45:00Z,30.4178,-88.4054,1.62,10.5,1111122 
NERRS,ioos:station:NOAA.NERRS:gndbhwq:1,2016-04-10T19:45:00Z,30.4178,-88.4054,1.58,10.3,1111122 
NERRS,ioos:station:NOAA.NERRS:gndbhwq:1,2016-04-10T20:45:00Z,30.4178,-88.4054,1.53,9.6,1111122 
NERRS,ioos:station:NOAA.NERRS:gndbhwq:1,2016-04-10T21:45:00Z,30.4178,-88.4054,1.43,8.5,1111122 
NERRS,ioos:station:NOAA.NERRS:gndbhwq:1,2016-04-10T22:45:00Z,30.4178,-88.4054,1.3,8.4,1111122 
NERRS,ioos:station:NOAA.NERRS:gndbhwq:1,2016-04-10T23:45:00Z,30.4178,-88.4054,1.23,8.2,1111122 
NERRS,ioos:station:NOAA.NERRS:gndbhwq:1,2016-04-11T00:45:00Z,30.4178,-88.4054,1.19,8.5,1111122 
NERRS,ioos:station:NOAA.NERRS:gndbhwq:1,2016-04-11T01:45:00Z,30.4178,-88.4054,1.19,8.6,1111122 
NERRS,ioos:station:NOAA.NERRS:gndbhwq:1,2016-04-11T02:45:00Z,30.4178,-88.4054,1.21,8.6,1111122 
NERRS,ioos:station:NOAA.NERRS:gndbhwq:1,2016-04-11T03:45:00Z,30.4178,-88.4054,1.24,8.3,1111122 
NERRS,ioos:station:NOAA.NERRS:gndbhwq:1,2016-04-11T04:45:00Z,30.4178,-88.4054,1.22,8.2,1111122 
NERRS,ioos:station:NOAA.NERRS:gndbhwq:1,2016-04-11T05:45:00Z,30.4178,-88.4054,1.22,8.1,1111122 
NERRS,ioos:station:NOAA.NERRS:gndbhwq:1,2016-04-11T06:45:00Z,30.4178,-88.4054,1.18,8.2,1111122 
NERRS,ioos:station:NOAA.NERRS:gndbhwq:1,2016-04-11T07:45:00Z,30.4178,-88.4054,1.27,8.8,1111122 
NERRS,ioos:station:NOAA.NERRS:gndbhwq:1,2016-04-11T08:45:00Z,30.4178,-88.4054,1.23,9.3,1111122 
NERRS,ioos:station:NOAA.NERRS:gndbhwq:1,2016-04-11T09:45:00Z,30.4178,-88.4054,1.33,8.6,1111122 
NERRS,ioos:station:NOAA.NERRS:gndbhwq:1,2016-04-11T10:45:00Z,30.4178,-88.4054,1.31,9.3,1111122 
NERRS,ioos:station:NOAA.NERRS:gndbhwq:1,2016-04-11T11:45:00Z,30.4178,-88.4054,1.41,9.4,1111122 
NERRS,ioos:station:NOAA.NERRS:gndbhwq:1,2016-04-11T12:45:00Z,30.4178,-88.4054,1.43,10.0,1111122 
NERRS,ioos:station:NOAA.NERRS:gndbhwq:1,2016-04-11T13:45:00Z,30.4178,-88.4054,1.52,10.0,1111122 
NERRS,ioos:station:NOAA.NERRS:gndbhwq:1,2016-04-11T14:45:00Z,30.4178,-88.4054,1.55,10.0,1111122 
NERRS,ioos:station:NOAA.NERRS:gndbhwq:1,2016-04-11T15:45:00Z,30.4178,-88.4054,1.65,10.2,1111122 
NERRS,ioos:station:NOAA.NERRS:gndbhwq:1,2016-04-11T16:45:00Z,30.4178,-88.4054,1.66,10.1,1111122 
NERRS,ioos:station:NOAA.NERRS:gndbhwq:1,2016-04-11T17:45:00Z,30.4178,-88.4054,1.73,10.7,1111122 
NERRS,ioos:station:NOAA.NERRS:gndbhwq:1,2016-04-11T18:45:00Z,30.4178,-88.4054,1.68,10.4,1111122 
NERRS,ioos:station:NOAA.NERRS:gndbhwq:1,2016-04-11T19:45:00Z,30.4178,-88.4054,1.65,10.4,1111122 
NERRS,ioos:station:NOAA.NERRS:gndbhwq:1,2016-04-11T20:45:00Z,30.4178,-88.4054,1.66,10.3,1111122 
NERRS,ioos:station:NOAA.NERRS:gndbhwq:1,2016-04-11T21:45:00Z,30.4178,-88.4054,1.51,10.2,1111122 
NERRS,ioos:station:NOAA.NERRS:gndbhwq:1,2016-04-11T22:45:00Z,30.4178,-88.4054,1.39,9.3,1111122 
NERRS,ioos:station:NOAA.NERRS:gndbhwq:1,2016-04-11T23:45:00Z,30.4178,-88.4054,1.29,9.9,1111122 
NERRS,ioos:station:NOAA.NERRS:gndbhwq:1,2016-04-12T00:45:00Z,30.4178,-88.4054,1.22,10.5,1111122 
NERRS,ioos:station:NOAA.NERRS:gndbhwq:1,2016-04-12T01:45:00Z,30.4178,-88.4054,1.19,10.5,1111122 
NERRS,ioos:station:NOAA.NERRS:gndbhwq:1,2016-04-12T02:45:00Z,30.4178,-88.4054,1.15,10.1,1111122 
NERRS,ioos:station:NOAA.NERRS:gndbhwq:1,2016-04-12T03:45:00Z,30.4178,-88.4054,1.15,10.0,1111122 
NERRS,ioos:station:NOAA.NERRS:gndbhwq:1,2016-04-12T04:45:00Z,30.4178,-88.4054,1.11,10.1,1111122 
NERRS,ioos:station:NOAA.NERRS:gndbhwq:1,2016-04-12T05:45:00Z,30.4178,-88.4054,1.06,10.3,1111122 
NERRS,ioos:station:NOAA.NERRS:gndbhwq:1,2016-04-12T06:45:00Z,30.4178,-88.4054,1.03,10.0,1111122 
NERRS,ioos:station:NOAA.NERRS:gndbhwq:1,2016-04-12T07:45:00Z,30.4178,-88.4054,1.02,10.7,1111122 
NERRS,ioos:station:NOAA.NERRS:gndbhwq:1,2016-04-12T08:45:00Z,30.4178,-88.4054,1.07,10.6,1111122 
NERRS,ioos:station:NOAA.NERRS:gndbhwq:1,2016-04-12T09:45:00Z,30.4178,-88.4054,1.13,10.7,1111122 
NERRS,ioos:station:NOAA.NERRS:gndbhwq:1,2016-04-12T10:45:00Z,30.4178,-88.4054,1.17,10.9,1111122 
NERRS,ioos:station:NOAA.NERRS:gndbhwq:1,2016-04-12T11:45:00Z,30.4178,-88.4054,1.34,10.6,1111122 
NERRS,ioos:station:NOAA.NERRS:gndbhwq:1,2016-04-12T12:45:00Z,30.4178,-88.4054,1.4,10.9,1111122 
NERRS,ioos:station:NOAA.NERRS:gndbhwq:1,2016-04-12T13:45:00Z,30.4178,-88.4054,1.47,10.9,1111122 
NERRS,ioos:station:NOAA.NERRS:gndbhwq:1,2016-04-12T14:45:00Z,30.4178,-88.4054,1.48,10.9,1111122 
NERRS,ioos:station:NOAA.NERRS:gndbhwq:1,2016-04-12T15:45:00Z,30.4178,-88.4054,1.53,11.3,1111122 
NERRS,ioos:station:NOAA.NERRS:gndbhwq:1,2016-04-12T16:45:00Z,30.4178,-88.4054,1.55,11.3,1111122 
NERRS,ioos:station:NOAA.NERRS:gndbhwq:1,2016-04-12T17:45:00Z,30.4178,-88.4054,1.57,11.5,1111122 
NERRS,ioos:station:NOAA.NERRS:gndbhwq:1,2016-04-12T18:45:00Z,30.4178,-88.4054,1.55,11.6,1111122 
NERRS,ioos:station:NOAA.NERRS:gndbhwq:1,2016-04-12T19:45:00Z,30.4178,-88.4054,1.49,11.6,1111122 
NERRS,ioos:station:NOAA.NERRS:gndbhwq:1,2016-04-12T20:45:00Z,30.4178,-88.4054,1.44,11.7,1111122 
NERRS,ioos:station:NOAA.NERRS:gndbhwq:1,2016-04-12T21:45:00Z,30.4178,-88.4054,1.37,11.6,1111122 
NERRS,ioos:station:NOAA.NERRS:gndbhwq:1,2016-04-12T22:45:00Z,30.4178,-88.4054,1.35,11.7,1111122 
NERRS,ioos:station:NOAA.NERRS:gndbhwq:1,2016-04-12T23:45:00Z,30.4178,-88.4054,1.25,11.5,1111122 
NERRS,ioos:station:NOAA.NERRS:gndbhwq:1,2016-04-13T00:45:00Z,30.4178,-88.4054,1.23,11.8,1111122 
NERRS,ioos:station:NOAA.NERRS:gndbhwq:1,2016-04-13T01:45:00Z,30.4178,-88.4054,1.13,11.5,1111122 
NERRS,ioos:station:NOAA.NERRS:gndbhwq:1,2016-04-13T02:45:00Z,30.4178,-88.4054,1.09,11.6,1111122 
NERRS,ioos:station:NOAA.NERRS:gndbhwq:1,2016-04-13T03:45:00Z,30.4178,-88.4054,1.1,11.7,1111122 
NERRS,ioos:station:NOAA.NERRS:gndbhwq:1,2016-04-13T04:45:00Z,30.4178,-88.4054,1.02,11.6,1111122 
NERRS,ioos:station:NOAA.NERRS:gndbhwq:1,2016-04-13T05:45:00Z,30.4178,-88.4054,1.07,11.7,1111122 
NERRS,ioos:station:NOAA.NERRS:gndbhwq:1,2016-04-13T06:45:00Z,30.4178,-88.4054,1.08,12.1,1111122 
NERRS,ioos:station:NOAA.NERRS:gndbhwq:1,2016-04-13T07:45:00Z,30.4178,-88.4054,1.04,11.4,1111122 
NERRS,ioos:station:NOAA.NERRS:gndbhwq:1,2016-04-13T08:45:00Z,30.4178,-88.4054,1.15,12.0,1111122 
NERRS,ioos:station:NOAA.NERRS:gndbhwq:1,2016-04-13T09:45:00Z,30.4178,-88.4054,1.1,11.9,1111122 
NERRS,ioos:station:NOAA.NERRS:gndbhwq:1,2016-04-13T10:45:00Z,30.4178,-88.4054,1.21,11.9,1111122 
NERRS,ioos:station:NOAA.NERRS:gndbhwq:1,2016-04-13T11:45:00Z,30.4178,-88.4054,1.24,12.2,1111122 
NERRS,ioos:station:NOAA.NERRS:gndbhwq:1,2016-04-13T12:45:00Z,30.4178,-88.4054,1.24,12.0,1111122 
NERRS,ioos:station:NOAA.NERRS:gndbhwq:1,2016-04-13T13:45:00Z,30.4178,-88.4054,1.3,12.1,1111122 
NERRS,ioos:station:NOAA.NERRS:gndbhwq:1,2016-04-13T14:45:00Z,30.4178,-88.4054,1.39,12.2,1111122 
NERRS,ioos:station:NOAA.NERRS:gndbhwq:1,2016-04-13T15:45:00Z,30.4178,-88.4054,1.48,12.4,1111122 
NERRS,ioos:station:NOAA.NERRS:gndbhwq:1,2016-04-13T16:45:00Z,30.4178,-88.4054,1.54,12.5,1111122 
NERRS,ioos:station:NOAA.NERRS:gndbhwq:1,2016-04-13T17:45:00Z,30.4178,-88.4054,1.57,12.5,1111122 
NERRS,ioos:station:NOAA.NERRS:gndbhwq:1,2016-04-13T18:45:00Z,30.4178,-88.4054,1.53,12.5,1111122 
NERRS,ioos:station:NOAA.NERRS:gndbhwq:1,2016-04-13T19:45:00Z,30.4178,-88.4054,1.4,12.1,1111122 
NERRS,ioos:station:NOAA.NERRS:gndbhwq:1,2016-04-13T20:45:00Z,30.4178,-88.4054,1.44,12.2,1111122 
NERRS,ioos:station:NOAA.NERRS:gndbhwq:1,2016-04-13T21:45:00Z,30.4178,-88.4054,1.38,12.1,1111122 
NERRS,ioos:station:NOAA.NERRS:gndbhwq:1,2016-04-13T22:45:00Z,30.4178,-88.4054,1.55,12.3,1111122 
NERRS,ioos:station:NOAA.NERRS:gndbhwq:1,2016-04-13T23:45:00Z,30.4178,-88.4054,1.44,12.2,1111122 
NERRS,ioos:station:NOAA.NERRS:gndbhwq:1,2016-04-14T00:45:00Z,30.4178,-88.4054,1.37,11.9,1111122 
NERRS,ioos:station:NOAA.NERRS:gndbhwq:1,2016-04-14T01:45:00Z,30.4178,-88.4054,1.15,11.9,1111122 
NERRS,ioos:station:NOAA.NERRS:gndbhwq:1,2016-04-14T02:45:00Z,30.4178,-88.4054,1.17,11.8,1111122 
NERRS,ioos:station:NOAA.NERRS:gndbhwq:1,2016-04-14T03:45:00Z,30.4178,-88.4054,1.04,11.5,1111122 
NERRS,ioos:station:NOAA.NERRS:gndbhwq:1,2016-04-14T04:45:00Z,30.4178,-88.4054,1.07,11.6,1111122 
NERRS,ioos:station:NOAA.NERRS:gndbhwq:1,2016-04-14T05:45:00Z,30.4178,-88.4054,1.02,12.2,1111122 
NERRS,ioos:station:NOAA.NERRS:gndbhwq:1,2016-04-14T06:45:00Z,30.4178,-88.4054,1.06,11.9,1111122 
NERRS,ioos:station:NOAA.NERRS:gndbhwq:1,2016-04-14T07:45:00Z,30.4178,-88.4054,1.02,11.3,1111122 